Showing default

FLOCK 4G 26, 62633

Orbit data source: Space-Track

FLOCK 4G 26, 62633 is a payload satellite owned by Planet (US) in SSO that was launched on Tue, 14 Jan 2025 UTC via an FALCON 9 launch vehicle from the Air Force Western Test Range (AFWTR). Payload-class satellites include a variety of spacecraft equipped with specific instruments for various scientific and technological missions. These include communications satellites like Starlink; space stations such as the ISS; scientific satellites like the Hubble; Earth observation satellites from companies like Planet Labs, Umbra, and HawkEye 360; GPS; miniature CubeSats for education and research; and military/defense satellites.

Loading next visibility...
Identifier
62633, 2025-009AA
Orbit
SSO
Country
Flag of USUS
Related business
Manufacturer
Planet
Mission
Operational Commercial Imaging
Bus & Motor
CUBESAT 3U, Unknown motor
Mass
5.7 kg wet, 5.7 kg dry
Launch date (UTC)
2025-01-14 (7 months ago)
Launch vehicle
FALCON 9
Launch site
Air Force Western Test Range (AFWTR)
Object type
Payload
Rocket body
Debris
Shape & HBR
Box + 2 Pan, 0.1 m
Radar Cross Section
0.035 m², Medium (>0.1 m² and < 1m²)

Expand to show TLE details & history
Last TLE update: 21 hours ago

TLE from 21 hours ago
0 FLOCK 4G 26
1 62633U 25009AA  25241.18649253  .00012683  00000-0  56021-3 0  9995
2 62633  97.4283 320.6033 0002812 236.7870 123.3097 15.21862706 34389
Epoch: 2025-08-29T04:28Z
TLE epoch observation values (Epoch: 2025-08-29T04:28:32.954Z)
Latitude
-0°
Longitude
-84.17276°
Altitude
504.377 km
Speed
7.611 km/s
True Right ascension
21h 22m 24s
True Declination
0° 00' 00"
Sunlit
Object was in full shadow at epoch
Visualization orbit readout
Latitude
Unknown
Longitude
Unknown
Altitude
Unknown
Speed
Unknown
Apparent Right ascension
Unknown
Apparent Declination
Unknown
Sunlit
N/A
Visualization observer readout
Local Sidereal Time
16:57:01
Azimuth
Unknown
Elevation
Unknown
Doppler factor
Unknown
Orbital elements
Apogee altitude
499.12 km
Perigee altitude
495.253 km
Semi-major axis
6,875.324 km
Eccentricity
0.00028
Inclination
97.4283°
RAAN
320.6033°
Arg. of periapsis
236.787°
True anomaly
123.33662°
Mean anomaly
123.3097°
Eccentric anomaly
123.32316°
Mean motion
3.80718 °/min
Orbital period
94.56 mins
BSTAR
0.00056021
Loading maneuver chart data...
Computing Atmospheric mass density...
Loading historical data...
Loading historical data...
Loading historical data...
Loading historical data...
Loading historical data...
Loading historical data...
Loading historical data...

Documentation

Showing up to 5 results
|